Weather in Aleksikovsky

Russia / Volgograd Oblast     50°56′30″N   42°19′26″E
temp.,
°C
wind,
m/s
gust,
m/s
humid.,
%
clouds,
%
prec.,
mm/h
press.,
hPa
HPBL,
m
27 february, sat
sat2700:00+2wnw613100100 0.1 1008325
03:00+1w51197100 0.1 1008345
06:00+1w61394100 0.0 1007466
09:00+1w61393100 0.0 1007594
12:00+1w61298100 0.0 1007668
15:00+1wnw7149693 0.1 1007713
18:000wnw8149594 0.1 1008714
21:00−3nnw6148694 0.2 1010645
28 february, sun
sun2800:00−6nnw49891 0.0 1011444
03:00−7nnw49901 0.0 1013404
06:00−8nnw38910 0.0 1014384
09:00−8nnw46890 0.0 1015425
12:00−6nnw358472 0.0 1016533
15:00−5nnw358272 0.0 1016604
18:00−7nnw239174 0.0 101790
21:00−7n229481 0.0 101942
1 march, mon
mon100:00−8n129573 0.0 102032
03:00−9n229673 0.1 102128
06:00−9n229565 0.0 102227
09:00−9nne239248 0.0 1024172
12:00−7n238468 0.0 1025402
15:00−5nw138283 0.0 1025510
18:00−6nw128989 0.0 102621
21:00−7w119145 0.0 102621
2 march, tue
tue200:00−7sw34900 0.0 102548
03:00−5sw489138 0.0 1024176
06:00−4wsw51291100 0.0 1021404
09:00−2wsw71386100 0.0 1018540
12:00−1wsw81495100 0.6 1015840
15:000wsw91498100 2.6 1011774
18:00+1wnw81397100 0.9 1009666
21:000nw61292100 1.4 1010692
3 march, wed
wed300:00−1nw7129096 0.0 1010697
03:00−2nw6129398 0.2 1011604
06:00−2nw6119195 0.1 1012697
09:00−2nw6119398 0.2 1014745
12:00−2nnw7108799 0.2 1015863
15:00−2nnw6108199 0.3 10161076
18:00−3nnw6118799 0.1 1018801
21:00−3nnw5108699 0.1 1020801